Flag for Nigeria Weather past 2 weeks in Lagos, Nigeria

Now
81 °F

Passing clouds.


Feels Like: 88 °F
Forecast: 78 / 93 °F
Wind: No wind

Location: Lagos / Ikeja

Current Time: Apr 26, 2015 at 4:23:14 AM

Latest Report: Apr 26, 2015 at 4:00 AM


Visibility: N/A

Pressure: 29.86 "Hg

Humidity: 94%

Dew point: 79 °F

Location of LagosLocation

Historic Weather in Lagos — Graph

°F

Lagos temperature yesterday

Maximum temperature yesterday: 91 °F (at 1:00 PM)
Minimum temperature yesterday: 73 °F (at 12:00 AM)
Average temperature yesterday: 82 °F

Past Weeks' High & Low Weather Summary

 TemperatureHumidityPressure
High93 °F (Apr 15, 2:00 PM)100% (Apr 13, 7:00 AM)29.98 "Hg (Apr 13, 7:00 AM)
Low72 °F (Apr 24, 7:00 PM)52% (Apr 22, 12:00 PM)29.77 "Hg (Apr 15, 4:00 PM)
Average84 °F83%29.86 "Hg
* Reported Apr 11 5:00 AM — Apr 26 3:00 AM, Lagos, Weather by CustomWeather, © 2015

Note: Actual official high and low records may vary slightly from our data, if they occured in-between our weather recording intervals... More about our weather records

Advertising

Lagos weather history for previous 24 hours

 ConditionsComfort  
Time TempWeatherWind HumidityBarometerVisibility
3:00 AM
Sun, Apr 26
81 °FPassing clouds.No wind94%29.86 "HgN/A
2:00 AM81 °FPassing clouds.2 mph94%29.89 "HgN/A
1:00 AM82 °FPassing clouds.3 mph89%29.89 "HgN/A
12:00 AM82 °FPassing clouds.2 mph89%29.92 "HgN/A
11:00 PM
Sat, Apr 25
82 °FPassing clouds.2 mph89%29.92 "HgN/A
10:00 PM82 °FPassing clouds.3 mph89%29.89 "HgN/A
9:00 PM82 °FPassing clouds.7 mph89%29.89 "HgN/A
8:00 PM84 °FPassing clouds.5 mph84%29.89 "HgN/A
7:00 PM84 °FPassing clouds.7 mph84%29.86 "HgN/A
6:00 PM88 °FPassing clouds.14 mph75%29.86 "HgN/A
3:00 PM91 °FPassing clouds.10 mph63%29.86 "HgN/A
2:00 PM91 °FScattered clouds.8 mph63%29.89 "HgN/A
1:00 PM91 °FScattered clouds.8 mph63%29.89 "HgN/A
12:00 PM90 °FScattered clouds.17 mph71%29.92 "HgN/A
11:00 AM90 °FScattered clouds.8 mph71%29.92 "Hg5 mi
10:00 AM86 °FScattered clouds.6 mph79%29.92 "Hg5 mi
9:00 AM81 °FScattered clouds.2 mph89%29.92 "Hg5 mi
8:00 AM79 °FScattered clouds.2 mph89%29.89 "Hg5 mi
7:00 AM75 °FPassing clouds.2 mph100%29.89 "Hg4 mi
6:00 AM75 °FPassing clouds.3 mph94%29.89 "Hg4 mi
5:00 AM75 °FPassing clouds.3 mph94%29.86 "Hg4 mi
4:00 AM75 °FPassing clouds.2 mph94%29.86 "Hg4 mi
Weather by CustomWeather, © 2015

See weather overviewHow to use our weather pages